Location: Caltech
(34.1382°N, 118.1253°W)
Time: 07:02:41
(UTC-08:00)

SO-67 - Visible Passes

Search period start: 24 November 2014 00:00
Search period end: 04 December 2014 00:00
Orbit: 457 x 458 km, 97.1° (Epoch: 24 November)

Date Brightness Start Highest point End Pass type
(mag) Time Alt. Az. Time Alt. Az. Time Alt. Az.
24 Nov ? 05:57:40 10° ENE 05:59:03 12° E 06:00:26 10° ESE visible
24 Nov ? 17:57:01 10° SSE 18:00:17 44° ENE 18:03:34 10° N visible
25 Nov ? 17:25:38 10° ESE 17:27:46 16° ENE 17:29:54 10° NNE visible
25 Nov ? 18:57:51 10° SSW 19:00:29 21° W 19:03:09 10° NW visible
26 Nov ? 18:24:18 10° S 18:27:41 65° W 18:31:06 10° NNW visible
27 Nov ? 05:53:30 10° E 05:53:45 10° E 05:53:59 10° E visible
27 Nov ? 17:51:49 10° SE 17:54:59 37° ENE 17:58:11 10° N visible
28 Nov ? 17:20:40 10° E 17:22:25 14° ENE 17:24:10 10° NE visible
28 Nov ? 18:52:12 10° SSW 18:55:03 25° W 18:57:55 10° NW visible
29 Nov ? 18:18:46 10° S 18:22:11 80° W 18:25:37 10° NNW visible
30 Nov ? 17:46:23 10° SE 17:49:25 31° ENE 17:52:29 10° N visible
30 Nov ? 19:21:53 10° WSW 19:22:24 10° W 19:22:55 10° W visible
01 Dec ? 17:15:37 10° E 17:16:47 11° ENE 17:17:56 10° NE visible
01 Dec ? 18:46:20 10° SSW 18:49:21 29° W 18:52:24 10° NW visible
02 Dec ? 18:13:00 10° SSE 18:16:25 83° ENE 18:19:51 10° N visible
03 Dec ? 17:40:43 10° SE 17:43:35 26° ENE 17:46:29 10° NNE visible
03 Dec ? 19:14:58 10° WSW 19:16:29 12° W 19:18:01 10° WNW visible
